Tracking 27419 objects as of 9-Jun-2023
HD Live streaming from Space Station
objects crossing your sky now

SHIYAN 6 02 (SY-6 02)

Track SHIYAN 6 02 (SY-6 02) now!
10-day predictions


NORAD ID: 45859
Int'l Code: 2020-043A
Perigee: 608.5 km
Apogee: 797.7 km
Inclination: 98.2 °
Period: 98.7 minutes
Semi major axis: 7074 km
RCS: Unknown
Launch date: July 4, 2020
Source: People's Republic of China (PRC)
Launch site: Jiuquan Satellite Launch Center, China (JSC)
Your satellite tracking list
Your tracking list is empty




NASA's NSSDC Master Catalog

Two Line Element Set (TLE):
1 45859U 20043A   23160.21454675  .00000598  00000-0  12190-3 0  9994
2 45859  98.1981 167.6911 0133737  71.6197 289.9492 14.59146497155762
Source of the keplerian elements: AFSPC